This demonstration page uses our WeatherBlox Daily Observations layout. Learn more.

Left ArrowRight Arrow

38.20091, -84.87328

Hourly Observations for April 28, 2022

Temp ( °F °C ) Dew Point ( °F °C ) Humidity (%) Winds ( mph kmh ) Pressure ( in mb ) Visibility ( mi km ) Precip ( " mm )
12:53 am 00:53 Clear 48 8.9 39 3.9 71 71 Calm 30.19 1022 10 16 0.00 0.00
1:53 am 01:53 Clear 47 8.3 38 3.3 71 71 NE 5 7 30.20 1023 10 16 0.00 0.00
2:53 am 02:53 Clear 51 10.6 36 2.2 56 56 NE 6 9 30.21 1023 10 16 0.00 0.00
3:53 am 03:53 Partly Cloudy 50 10 36 2.2 59 59 NE 7 11 30.21 1023 10 16 0.00 0.00
4:53 am 04:53 Clear 48 8.9 35 1.7 61 61 ENE 6 9 30.21 1023 10 16 0.00 0.00
5:53 am 05:53 Clear 47 8.3 35 1.7 63 63 NE 6 9 30.22 1024 10 16 0.00 0.00
6:53 am 06:53 Sunny 45 7.2 34 1.1 66 66 E 7 11 30.24 1024 10 16 0.00 0.00
7:53 am 07:53 Sunny 46 7.8 35 1.7 66 66 E 7 11 30.26 1025 10 16 0.00 0.00
8:53 am 08:53 Sunny 50 10 36 2.2 59 59 E 9 15 30.27 1025 10 16 0.00 0.00
9:53 am 09:53 Sunny 54 12.2 37 2.8 53 53 E 8 13 30.27 1025 10 16 0.00 0.00
10:53 am 10:53 Mostly Sunny 58 14.4 37 2.8 46 46 E 10 17 30.27 1025 10 16 0.00 0.00
11:53 am 11:53 Sunny 60 15.6 40 4.4 47 47 E 12 19 30.26 1025 10 16 0.00 0.00
12:53 pm 12:53 Sunny 63 17.2 40 4.4 43 43 ENE 13 20 30.24 1024 10 16 0.00 0.00
1:53 pm 13:53 Sunny 65 18.3 42 5.6 43 43 E 8 13 30.20 1023 10 16 0.00 0.00
2:53 pm 14:53 Sunny 67 19.4 43 6.1 42 42 E 10 17 30.17 1022 10 16 0.00 0.00
3:53 pm 15:53 Sunny 68 20 44 6.7 42 42 ESE 8 13 30.15 1021 10 16 0.00 0.00
4:53 pm 16:53 Mostly Sunny 67 19.4 43 6.1 42 42 E 7 11 30.13 1020 10 16 0.00 0.00
5:53 pm 17:53 Mostly Sunny 66 18.9 42 5.6 42 42 ENE 8 13 30.12 1020 10 16 0.00 0.00
6:53 pm 18:53 Mostly Cloudy 66 18.9 43 6.1 43 43 NE 8 13 30.12 1020 10 16 0.00 0.00
7:53 pm 19:53 Sunny 64 17.8 41 5 43 43 ENE 10 17 30.11 1020 10 16 0.00 0.00
8:53 pm 20:53 Partly Cloudy 63 17.2 42 5.6 47 47 ENE 9 15 30.11 1020 10 16 0.00 0.00
9:53 pm 21:53 Mostly Cloudy 61 16.1 40 4.4 46 46 ENE 9 15 30.13 1020 10 16 0.00 0.00
10:53 pm 22:53 Partly Cloudy 60 15.6 38 3.3 44 44 ENE 9 15 30.14 1021 10 16 0.00 0.00
11:53 pm 23:53 Mostly Cloudy 59 15 38 3.3 46 46 E 12 19 30.11 1020 10 16 0.00 0.00

Powered by AerisWeather